Flag for India Weather past 2 weeks in Lucknow, Uttar Pradesh, India

Now
90 °F

Broken clouds.


Feels Like: 105 °F
Forecast: 80 / 97 °F
Wind: 8 mph from East

Location: Lucknow / Amausi

Current Time: Jul 25, 2014 at 1:00:56 PM

Latest Report: Jul 25, 2014 at 12:00 PM


Visibility: 3 mi

Pressure: 29.59 "Hg

Humidity: 71%

Dew point: 79 °F

Location of LucknowLocation

Historic Weather in Lucknow — Graph

°F

Lucknow temperature yesterday

Maximum temperature yesterday: 86 °F (at 11:30 AM)
Minimum temperature yesterday: 79 °F (at 4:00 AM)
Average temperature yesterday: 83 °F

Past Weeks' High & Low Weather Summary

 TemperatureHumidityPressure
High102 °F (Jul 21, 12:30 PM)100% (Jul 13, 4:30 PM)29.62 "Hg (Jul 13, 4:30 PM)
Low77 °F (Jul 18, 11:30 AM)57% (Jul 11, 2:30 PM)28.29 "Hg (Jul 14, 5:30 PM)
Average87 °F82%29.45 "Hg
* Reported Jul 10 11:30 AM — Jul 25 11:30 AM, Lucknow, Weather by CustomWeather, © 2014

Note: Actual official high and low records may vary slightly from our data, if they occured in-between our weather recording intervals... More about our weather records

Advertising

Lucknow weather history for previous 24 hours

 ConditionsComfort  
Time TempWeatherWind HumidityBarometerVisibility
11:30 AM
Jul 25
88 °FBroken clouds.7 mph75%29.62 "Hg3 mi
11:00 AM88 °FBroken clouds.7 mph70%29.59 "Hg3 mi
10:30 AM88 °FBroken clouds.5 mph70%29.62 "Hg3 mi
10:00 AM88 °FBroken clouds.6 mph70%29.62 "Hg3 mi
9:30 AM86 °FBroken clouds.3 mph75%29.62 "Hg3 mi
9:00 AM84 °FBroken clouds.2 mph79%29.62 "Hg3 mi
8:30 AM82 °FBroken clouds.2 mph79%29.62 "Hg2 mi
8:00 AM81 °FBroken clouds.3 mph84%29.59 "Hg2 mi
7:30 AM81 °FBroken clouds.3 mph89%29.59 "Hg2 mi
7:00 AM81 °FBroken clouds.No wind89%29.59 "Hg2 mi
6:30 AM79 °FBroken clouds.No wind89%29.59 "Hg2 mi
6:00 AM79 °FBroken clouds.No wind89%29.56 "Hg2 mi
5:30 AM79 °FPartly cloudy.No wind89%29.56 "Hg2 mi
5:00 AM79 °FPartly cloudy.No wind94%29.56 "Hg2 mi
4:00 AM79 °FPartly cloudy.2 mph94%29.56 "Hg2 mi
1:00 AM81 °FPartly cloudy.No wind89%29.59 "Hg2 mi
12:00 AM81 °FPartly cloudy.No wind89%29.59 "Hg2 mi
11:00 PM
Jul 24
81 °FPartly cloudy.No wind89%29.59 "Hg2 mi
10:00 PM82 °FPassing clouds.No wind79%29.59 "Hg2 mi
8:30 PM82 °FPassing clouds.2 mph84%29.56 "Hg3 mi
8:00 PM82 °FPartly cloudy.2 mph79%29.56 "Hg3 mi
7:30 PM82 °FPartly cloudy.2 mph79%29.53 "Hg3 mi
6:30 PM84 °FBroken clouds.3 mph70%29.50 "Hg4 mi
5:30 PM86 °FBroken clouds.6 mph70%29.50 "Hg4 mi
5:00 PM86 °FBroken clouds.6 mph70%29.47 "Hg4 mi
4:30 PM86 °FBroken clouds.6 mph70%29.47 "Hg4 mi
4:00 PM86 °FBroken clouds.8 mph75%29.47 "Hg4 mi
3:00 PM86 °FBroken clouds.7 mph70%29.50 "Hg3 mi
2:30 PM86 °FBroken clouds.7 mph70%29.50 "Hg3 mi
2:00 PM86 °FBroken clouds.6 mph70%29.53 "Hg3 mi
1:30 PM86 °FBroken clouds.9 mph70%29.53 "Hg3 mi
1:00 PM86 °FBroken clouds.9 mph70%29.53 "Hg3 mi
Weather by CustomWeather, © 2014

See weather overviewHow to use our weather pages